Probability
0 0 0 0 0 0 0 0 0 0 0 0 0 0 0 0 0 0 0 0 0 0 0 0 0 0 0 0 0 0 0 0 0 0 0 0 0 0 0 0 0 0 0
0 0 0 0 0 0 0 0 0 0 0 0 0 0 0 0 0 0 0 0 0 0 0 0 0 0 0 0 0 0 0 0 0 0 0 0 0 0 0 0 0 0 0
0 0 0 0 0 0 0 0 0 0 0 0 0 0 0 0 0 0 0 0 0 0 0 0 0 0 0 0 0 0 0 0 0 0 0 0 0 0 0 0 0 0 0
0 0 0 0 0 0 0 0 0 0 0 0 0 0 0 0 0 0 0 0 0 0 0 0 0 0 0 0 0 0 0 0 0 0 0 0 0 0 0 0 0 0 0
0 0 0 0 0 0 0 0 0 0 0 0 0 0 0 0 0 0 0 0 0 0 0 0 0 0 0 0 0 0 0 0 0 0 0 0 0 0 0 0 0 0 0
0 0 0 0 0 0 0 0 0 0 0 0 0 0 0 0 0 0 0 0 0 0 0 0 0 0 0 0 0 0 0 0 0 0 0 0 0 0 0 0 0 0 0
0 0 0 0 0 0 0 0 0 0 0 0 0 0 0 0 0 0 0 0 0 0 0 0 0 0 0 0 0 0 0 0 0 0 0 0 0 0 0 0 0 0 0
0 0 0 0 0 0 0 0 0 0 0 0 0 0 0 0 0 0 0 0 0 0 0 0 0 0 0 0 0 0 0 0 0 0 0 0 0 0 0 0 0 0 0
0 0 0 0 0 0 0 0 0 0 0 0 0 0 0 0 0 0 0 0 0 0 0 0 0 0 0 0 0 0 0 0 0 0 0 0 0 0 0 0 0 0 0
0 0 0 0 0 0 0 0 0 0 0 0 0 0 0 0 0 0 0 0 0 0 0 0 0 0 0 0 0 0 0 0 0 0 0 0 0 0 0 0 0 0 0
0 0 0 0 0 0 0 0 0 0 0 0 0 0 0 0 0 0 0 0 0 0 0 0 0 0 0 0 0 0 0 0 0 0 0 0 0 0 0 0 0 0 0
0 0 0 0 0 0 0 0 0 0 0 0 0 0 0 0 0 0 0 0 0 0 0 0 0 0 0 0 0 0 0 0 0 0 0 0 0 0 0 0 0 0 0
0 0 0 0 0 0 0 0 0 0 0 0 0 0 0 0 0 0 0 0 0 0 0 0 0 0 0 0 0 0 0 0 0 0 0 0 0 0 0 0 0 0 0
0 0 0 0 0 0 0 0 0 0 0 0 0 0 0 0 0 0 0 0 0 0 0 0 0 0 0 0 0 0 0 0 0 0 0 0 0 0 0 0 0 0 0
0 0 0 0 0 0 0 0 0 0 0 0 0 0 0 0 0 0 0 0 0 0 0 0 0 0 0 0 0 0 0 0 0 0 0 0 0 0 0 0 0 0 0
0 0 0 0 0 0 0 0 0 0 0 0 0 0 0 0 0 0 0 0 0 0 0 0 0 0 0 0 0 0 0 0 0 0 0 0 0 0 0 0 0 0 0
0 0 0 0 0 0 0 0 0 0 0 0 0 0 0 0 0 0 0 0 0 0 0 0 0 0 0 0 0 0 0 0 0 0 0 0 0 0 0 0 0 0 0
0 0 0 0 0 0 0 0 0 0 0 0 0 0 0 0 0 0 0 0 0 0 0 0 0 0 0 0 0 0 0 0 0 0 0 0 0 0 0 0 0 0 0
0 0 0 0 0 0 0 0 0 0 0 0 0 0 0 0 0 0 0 0 0 0 0 0 0 0 0 0 0 0 0 0 0 0 0 0 0 0 0 0 0 0 0
0 0 0 0 0 0 0 0 0 0 0 0 0 0 0 0 0 0 0 0 0 0 0 0 0 0 0 0 0 0 0 0 0 0 0 0 0 0 0 0 0 0 0
0 0 0 0 0 0 0 0 0 0 0 0 0 0 0 0 0 0 0 0 0 0 0 0 0 0 0 0 0 0 0 0 0 0 0 0 0 0 0 0 0 0 0
0 0 0 0 0 0 0 0 0 0 0 0 0 0 0 0 0 0 0 0 0 0 0 0 0 0 0 0 0 0 0 0 0 0 0 0 0 0 0 0 0 0 0
0 0 0 0 0 0 0 0 0 0 0 0 0 0 0 0 0 0 0 0 0 0 0 0 0 0 0 0 0 0 0 0 0 0 0 0 0 0 0 0 0 0 0
0 0 0 0 0 0 0 0 0 0 0 0 0 0 0 0 0 0 0 0 0 0 0 0 0 0 0 0 0 0 0 0 0 0 0 0 0 0 0 0 0 0 0
0 0 0 0 0 0 0 0 0 0 0 0 0 0 0 0 0 0 0 0 0 0 0 0 0 0 0 0 0 0 0 0 0 0 0 0 0 0 0 0 0 0 0
0 0 0 0 0 0 0 0 0 0 0 0 0 0 0 0 0 0 0 0 0 0 0 0 0 0 0 0 0 0 0 0 0 0 0 0 0 0 0 0 0 0 0
Wind_Speed
5 4 3 3 3 2 2 2 2 2 2 2 2 3 3 3 2 2 1 4 5 6 7 8 9 9 10 11 11 12 13 13 13 14 14 15 15 15 16 16 17 18 18
6 5 4 4 3 3 3 3 3 2 2 1 2 3 3 3 2 2 2 3 6 6 7 8 8 8 9 10 11 11 12 12 13 13 13 14 14 15 15 16 17 17 18
7 6 5 4 4 4 4 3 2 2 2 2 2 2 2 3 3 3 2 2 3 6 7 7 7 8 9 10 10 10 11 11 12 12 13 13 14 14 15 15 16 16 17
8 7 5 5 5 4 4 3 3 2 2 2 2 2 2 2 3 3 3 2 2 2 4 7 7 8 8 9 9 9 10 11 11 11 12 12 13 13 14 15 15 16 16
9 7 6 6 6 4 4 4 3 3 3 2 2 2 2 2 3 4 4 4 3 3 3 6 8 8 7 7 8 8 9 9 10 10 11 11 12 13 13 14 14 15 16
10 8 6 7 7 5 5 4 4 3 3 3 2 1 1 2 2 3 4 4 3 4 4 4 3 4 6 6 7 7 8 8 9 9 10 10 11 11 12 13 14 15 15
11 10 8 8 8 7 7 7 5 4 4 3 2 1 1 0 2 3 3 4 4 4 4 4 3 2 2 5 5 6 6 7 7 8 8 9 9 10 11 12 13 14 15
11 10 10 9 9 8 8 8 6 4 4 4 4 3 2 1 2 3 3 4 5 4 4 5 4 3 2 1 2 5 5 6 6 7 7 8 8 9 10 11 12 13 14
13 12 12 10 10 10 9 10 9 8 6 6 5 5 5 5 2 2 4 4 5 4 4 4 5 4 3 1 1 2 4 4 5 6 6 6 7 8 9 10 11 12 14
13 13 13 12 11 10 10 10 10 8 7 6 5 4 3 4 4 3 2 3 4 5 6 5 5 5 4 2 2 3 4 4 4 4 4 5 6 7 8 9 10 11 13
12 13 13 12 12 11 11 11 11 11 9 8 6 4 4 3 3 4 4 3 3 4 5 5 5 5 5 4 2 3 4 4 4 3 3 4 5 6 7 8 9 11 12
10 13 13 13 13 12 13 13 12 13 11 10 8 6 6 5 6 5 5 4 4 4 4 4 5 5 5 4 5 6 6 5 4 3 2 2 4 5 6 7 9 10 11
11 14 14 14 13 14 12 11 11 12 13 12 11 9 8 7 5 6 5 4 4 3 3 4 5 5 5 5 4 8 6 6 5 4 2 1 2 3 5 6 7 9 10
12 11 14 14 14 13 12 12 11 11 10 12 13 12 9 8 7 6 6 6 4 3 4 5 4 6 6 5 7 10 5 7 6 5 4 2 1 1 3 5 6 8 9
9 11 12 14 14 14 13 12 11 13 11 12 12 12 10 8 7 7 6 6 8 7 9 8 6 6 6 6 10 6 5 8 8 6 5 3 2 0 1 3 5 6 8
11 11 13 14 14 14 13 13 12 11 12 12 10 11 12 8 7 7 7 7 7 7 7 6 6 5 8 6 10 6 6 9 8 7 6 5 3 2 1 2 4 6 7
12 13 13 13 14 14 14 14 14 12 14 13 12 13 13 11 9 8 7 7 7 6 5 3 2 4 7 7 7 5 5 5 4 8 7 6 5 4 2 2 3 5 6
12 13 12 13 14 14 14 15 16 15 15 16 14 14 14 10 12 9 8 9 8 6 6 6 4 4 5 8 7 6 5 4 3 8 8 7 6 5 4 3 2 4 5
11 11 12 14 14 14 14 15 15 15 16 15 14 15 14 12 13 9 9 9 7 6 4 6 5 3 3 5 5 4 4 3 4 6 8 8 7 7 6 5 3 4 5
10 10 11 12 12 13 13 14 14 14 14 13 13 13 13 14 15 13 11 10 8 7 5 6 5 4 3 4 5 5 4 4 3 3 5 6 6 7 6 6 5 5 5
7 8 8 9 9 9 10 11 11 12 12 12 11 11 11 13 14 12 10 10 11 8 7 6 6 5 5 7 8 6 5 3 3 3 2 3 3 2 3 5 6 6 6
4 5 6 7 7 7 9 13 11 10 10 10 10 9 9 10 12 14 14 15 15 13 12 9 7 8 9 7 6 6 6 5 4 4 4 3 3 3 3 3 7 7 6
3 4 4 5 6 6 8 10 12 9 8 9 9 7 6 6 8 8 10 12 12 13 14 11 10 9 10 11 11 9 7 6 4 4 4 3 3 4 3 5 9 8 7
2 2 3 3 3 4 5 8 9 8 6 6 6 7 7 7 7 8 7 7 6 6 8 6 6 6 6 9 10 9 7 5 3 2 4 3 3 3 2 3 8 9 7
1 1 1 2 2 3 4 6 6 3 3 4 3 4 5 6 10 12 9 8 6 4 5 6 6 7 11 14 12 8 8 5 3 4 4 3 2 2 2 3 5 8 7
1 0 1 1 1 2 3 4 5 2 3 2 2 2 5 7 10 14 9 9 9 7 7 7 7 8 8 11 15 9 9 6 4 4 5 5 3 2 2 2 2 2 3
Wind_Direction
168 171 175 181 189 186 185 188 188 179 169 153 136 131 124 119 120 100 54 59 68 86 93 88 87 83 81 76 72 69 65 62 59 55 52 48 45 42 40 37 35 32 28
173 176 182 191 198 196 191 187 187 181 179 163 158 152 145 139 129 115 91 62 66 75 90 91 88 87 85 80 74 70 66 64 61 57 53 50 46 44 41 37 34 31 28
178 178 183 192 200 195 188 181 182 173 175 170 172 168 157 155 148 135 118 91 67 66 84 93 90 88 85 81 77 73 69 66 62 58 55 51 47 45 41 37 34 31 28
180 179 185 194 193 184 179 177 174 174 188 184 179 179 167 161 157 148 134 122 96 73 78 89 87 89 86 83 81 76 72 68 63 59 55 52 48 45 41 37 33 30 27
185 184 190 193 185 181 184 182 179 176 186 190 183 178 175 169 165 152 147 139 126 110 88 85 76 76 85 86 83 79 76 71 66 61 57 52 48 44 40 36 33 29 26
191 189 193 193 185 184 190 188 185 185 184 179 164 159 186 178 164 162 159 147 140 133 120 104 72 61 75 86 82 81 80 76 70 63 57 52 47 43 39 36 32 29 25
194 193 196 195 193 196 198 191 180 185 197 159 128 111 8 236 183 177 159 151 151 146 137 126 106 80 49 60 72 81 81 79 72 64 57 52 47 43 39 35 30 27 24
198 198 198 198 198 199 199 196 184 180 193 175 156 152 199 248 227 189 171 167 162 152 152 147 135 123 100 34 57 85 80 77 72 65 57 51 46 42 37 33 29 25 22
202 202 202 201 200 200 204 203 194 189 198 200 186 167 177 208 194 193 198 182 172 167 164 157 153 150 140 112 32 75 91 82 72 65 57 49 44 41 36 32 27 22 20
207 206 205 204 205 205 207 205 202 199 190 198 209 213 191 162 165 187 203 192 185 184 180 174 165 164 161 159 150 133 118 107 90 73 59 49 42 37 34 30 24 21 17
212 210 209 208 210 210 211 206 203 204 202 201 195 187 200 200 171 164 194 194 200 202 193 181 172 173 175 173 176 176 154 143 122 99 72 53 42 33 28 26 21 19 15
214 214 212 213 214 214 213 212 208 209 210 208 204 193 180 181 190 184 187 186 198 199 192 187 183 183 181 181 185 176 175 169 156 138 108 72 50 33 23 20 18 16 14
216 216 212 215 215 217 215 211 211 213 212 210 211 212 210 207 179 178 182 172 177 181 183 200 196 186 185 181 184 178 187 182 177 170 153 123 67 38 22 16 15 13 12
220 214 211 216 217 216 214 211 214 216 213 216 218 216 216 215 201 190 180 166 169 187 201 207 191 194 187 182 188 180 190 190 188 188 177 176 145 46 17 10 10 9 9
217 210 210 216 218 217 216 213 218 218 216 219 220 219 220 218 210 208 193 182 179 194 213 202 194 192 187 181 188 176 181 196 193 195 190 193 198 197 359 360 0 2 3
215 210 212 215 217 217 216 215 220 219 219 221 219 218 220 217 212 208 205 201 196 198 208 186 189 176 177 181 185 175 186 190 195 197 198 201 205 217 283 338 352 355 357
216 216 215 215 216 217 215 216 221 217 220 223 218 219 221 212 211 209 204 200 201 187 187 161 143 156 167 177 176 173 181 184 196 201 204 205 208 216 240 283 332 341 347
218 217 215 216 217 217 215 216 220 219 220 222 220 218 220 211 213 207 202 203 201 189 170 168 158 161 179 179 172 174 180 186 196 205 208 210 214 219 227 245 288 321 333
220 217 215 218 219 218 217 217 219 220 221 222 218 217 216 207 210 206 202 202 197 185 164 154 155 151 147 166 162 167 173 186 205 208 208 212 217 222 228 238 259 293 311
219 219 219 221 220 218 218 218 219 221 222 222 218 217 214 209 209 203 201 197 184 176 161 149 145 148 146 151 157 169 182 191 201 199 214 215 216 222 232 237 248 271 289
223 222 221 223 222 220 219 217 218 220 220 221 219 218 215 211 209 201 197 191 181 177 168 165 158 153 164 168 186 176 181 171 200 193 202 214 203 209 224 241 244 256 273
229 223 223 223 225 224 222 215 212 217 218 218 219 217 212 207 208 204 203 194 186 180 181 178 179 181 185 179 164 164 160 163 206 194 188 215 191 213 217 221 241 249 260
239 233 232 226 231 236 228 220 215 215 217 219 217 213 211 207 199 199 199 193 197 198 189 181 184 188 179 177 166 166 176 177 186 162 161 212 198 221 213 228 240 244 254
269 257 253 245 243 250 239 230 223 223 227 221 211 205 205 201 197 188 181 183 190 197 194 188 191 182 169 165 167 165 160 134 94 153 164 199 200 219 216 231 243 239 244
277 281 294 269 259 270 252 235 218 217 226 229 216 201 197 198 195 183 177 178 179 186 180 155 150 151 158 159 152 136 142 151 182 195 180 186 193 205 223 231 237 234 238
280 334 324 318 284 284 278 247 215 201 213 212 198 199 205 200 191 185 182 180 185 175 148 140 140 145 152 163 166 166 163 164 160 193 185 181 178 169 236 243 221 227 240